Location: Ústí nad Labem
(50.6611°N, 14.0531°E)
Time: 20:54:49
(UTC+02:00)

Tiros 1 - Visible Passes

Search period start: 19 April 2024 00:00
Search period end: 29 April 2024 00:00
Orbit: 625 x 657 km, 48.4° (Epoch: 19 April)

Date Brightness Start Highest point End Pass type
(mag) Time Alt. Az. Time Alt. Az. Time Alt. Az.
19 Apr 9.5 01:53:34 13° E 01:53:34 13° E 01:54:13 10° E visible
19 Apr 7.1 03:31:04 51° SSW 03:31:52 60° S 03:36:24 10° E visible
19 Apr 7.2 05:09:11 10° W 05:13:44 62° S 05:18:16 10° ESE visible
20 Apr 8.7 02:16:20 25° ESE 02:16:20 25° ESE 02:18:30 10° E visible
20 Apr 7.0 03:53:50 31° WSW 03:55:55 67° S 04:00:29 10° E visible
21 Apr 7.6 02:39:05 47° ESE 02:39:05 47° ESE 02:42:38 10° E visible
21 Apr 7.1 04:16:36 18° W 04:19:59 64° S 04:24:32 10° ESE visible
22 Apr 9.6 01:24:22 12° E 01:24:22 12° E 01:24:43 10° E visible
22 Apr 7.0 03:01:54 65° SSW 03:02:09 67° S 03:06:44 10° E visible
22 Apr 7.3 04:39:30 10° W 04:44:00 51° SSW 04:48:27 10° ESE visible
23 Apr 8.9 01:47:11 22° E 01:47:11 22° E 01:48:52 10° E visible
23 Apr 7.0 03:24:43 40° WSW 03:26:13 65° S 03:30:46 10° ESE visible
23 Apr 7.7 05:03:41 10° W 05:07:55 36° SSW 05:12:06 10° SE visible
24 Apr 8.0 02:10:06 36° ESE 02:10:06 36° ESE 02:12:57 10° E visible
24 Apr 7.2 03:47:38 24° W 03:50:14 54° SSW 03:54:43 10° ESE visible
25 Apr 7.2 02:33:07 57° SE 02:33:07 57° SE 02:37:00 10° ESE visible
25 Apr 7.5 04:10:40 15° W 04:14:09 39° SSW 04:18:25 10° SE visible
26 Apr 9.5 01:18:50 12° E 01:18:50 12° E 01:19:09 10° E visible
26 Apr 7.1 02:56:24 57° SSW 02:56:26 57° SSW 03:00:57 10° ESE visible
26 Apr 8.1 04:34:10 10° W 04:37:57 25° SSW 04:41:43 10° SSE visible
27 Apr 9.3 01:42:30 14° ESE 01:42:30 14° ESE 01:43:12 10° E visible
27 Apr 7.4 03:20:06 41° SSW 03:20:22 42° SSW 03:24:43 10° SE visible
27 Apr 8.7 04:59:03 10° WSW 05:01:36 15° SW 05:04:07 10° S visible
27 Apr 8.3 22:34:56 10° SW 22:37:28 25° S 22:37:28 25° S visible
28 Apr 9.5 02:06:54 11° ESE 02:06:54 11° ESE 02:07:10 10° ESE visible
28 Apr 8.0 03:44:34 27° SSW 03:44:34 27° SSW 03:48:05 10° SSE visible
28 Apr 8.5 21:18:27 10° S 21:21:37 18° SE 21:24:46 10° E visible
28 Apr 7.3 22:58:27 10° SW 23:02:48 47° SSE 23:02:48 47° SSE visible
